WA6MHA-15 Weather Reports


Display with metric or nautical units.
time (UTC)temp
F
wind
direction
speed
MPH
gust
MPH
rain 1hr
in
rain 24hr
in
rain mn
in
humidity
%
barometer
mb
20171213033637 62 61 0.0 0.0 0.00 0.00 0.00 25
20171213033235 62 61 0.0 0.0 0.00 0.00 0.00 25
20171213032834 62 61 0.0 0.0 0.00 0.00 0.00 24
20171213032432 62 61 0.0 0.0 0.00 0.00 0.00 25
20171213032030 61 61 0.0 0.0 0.00 0.00 0.00 25
20171213030826 61 61 0.0 0.0 0.00 0.00 0.00 26
20171213030022 62 61 0.0 0.0 0.00 0.00 0.00 26
20171213025219 62 61 0.0 0.0 0.00 0.00 0.00 26
20171213024816 62 61 0.0 0.0 0.00 0.00 0.00 25
20171213024414 63 61 0.0 0.0 0.00 0.00 0.00 25
20171213024013 65 61 0.0 0.0 0.00 0.00 0.00 24
20171213023211 67 61 0.0 6.0 0.00 0.00 0.00 22
20171213022808 68 61 0.0 6.0 0.00 0.00 0.00 21
20171213022004 67 54 0.0 5.0 0.00 0.00 0.00 22
20171213021603 69 54 0.0 6.0 0.00 0.00 0.00 21
20171213021200 70 7 1.0 5.0 0.00 0.00 0.00 21
20171213020758 69 18 0.0 5.0 0.00 0.00 0.00 21
20171213020355 68 29 3.0 5.0 0.00 0.00 0.00 22
20171213015954 68 53 1.0 8.0 0.00 0.00 0.00 22
20171213015152 62 267 0.0 0.0 0.00 0.00 0.00 26
20171213013545 62 267 0.0 0.0 0.00 0.00 0.00 25
20171213013143 62 267 0.0 0.0 0.00 0.00 0.00 25
20171213012740 63 267 0.0 0.0 0.00 0.00 0.00 25
20171213012338 63 267 0.0 0.0 0.00 0.00 0.00 24
20171213011536 65 267 0.0 0.0 0.00 0.00 0.00 23
20171213011134 65 267 0.0 0.0 0.00 0.00 0.00 23
20171213010732 65 267 0.0 0.0 0.00 0.00 0.00 23
20171213010444 66 267 0.0 0.0 0.00 0.00 0.00 23
20171213010139 67 267 0.0 0.0 0.00 0.00 0.00 24
20171213005838 66 267 0.0 0.0 0.00 0.00 0.00 24
20171213005231 67 267 0.0 0.0 0.00 0.00 0.00 22
20171213004928 69 267 0.0 0.0 0.00 0.00 0.00 21
20171213004627 71 267 0.0 0.0 0.00 0.00 0.00 22
20171213004324 71 267 0.0 0.0 0.00 0.00 0.00 21
20171213003417 76 267 0.0 0.0 0.00 0.00 0.00 18
20171213003115 76 267 0.0 0.0 0.00 0.00 0.00 18
20171213002508 77 267 0.0 0.0 0.00 0.00 0.00 18
20171213001905 77 267 0.0 0.0 0.00 0.00 0.00 15
20171213001603 78 267 0.0 0.0 0.00 0.00 0.00 16
20171213001300 78 267 0.0 0.0 0.00 0.00 0.00 17
20171213000957 78 267 0.0 0.0 0.00 0.00 0.00 16
20171213000655 78 267 0.0 0.0 0.00 0.00 0.00 16
20171213000353 78 267 0.0 0.0 0.00 0.00 0.00 17
20171213000050 79 267 0.0 0.0 0.00 0.00 0.00 17
20171212235745 79 267 0.0 0.0 0.00 0.00 0.00 16
20171212235446 79 267 0.0 0.0 0.00 0.00 0.00 16
20171212235417 79 267 0.0 3.0 0.00 0.00 0.00 16
20171212235143 79 267 0.0 3.0 0.00 0.00 0.00 16
20171212234840 80 267 0.0 3.0 0.00 0.00 0.00 16
20171212234236 80 289 0.0 6.0 0.00 0.00 0.00 16
20171212233328 80 230 0.0 5.0 0.00 0.00 0.00 15
20171212233315 80 275 0.0 3.0 0.00 0.00 0.00 15
20171212233026 80 275 0.0 3.0 0.00 0.00 0.00 15
20171212232724 80 219 0.0 3.0 0.00 0.00 0.00 15
20171212232647 80 219 0.0 7.0 0.00 0.00 0.00 16
20171212232422 80 219 0.0 7.0 0.00 0.00 0.00 16
20171212232120 80 258 1.0 7.0 0.00 0.00 0.00 16
20171212231732 81 293 0.0 9.0 0.00 0.00 0.00 16
20171212231516 81 293 0.0 9.0 0.00 0.00 0.00 16
20171212231215 81 236 6.0 9.0 0.00 0.00 0.00 16
20171212231153 81 293 4.0 8.0 0.00 0.00 0.00 15
20171212230912 81 293 4.0 8.0 0.00 0.00 0.00 15
20171212230500 82 327 2.0 7.0 0.00 0.00 0.00 15
20171212230317 81 303 0.0 5.0 0.00 0.00 0.00 15
20171212230308 82 327 2.0 7.0 0.00 0.00 0.00 15
20171212230007 81 303 0.0 5.0 0.00 0.00 0.00 15
20171212225059 81 322 2.0 7.0 0.00 0.00 0.00 14
20171212224152 81 237 8.0 10.0 0.00 0.00 0.00 14
20171212223849 82 203 3.0 10.0 0.00 0.00 0.00 14
20171212223546 82 230 5.0 6.0 0.00 0.00 0.00 14
20171212223243 82 198 0.0 6.0 0.00 0.00 0.00 14
20171212223226 82 189 2.0 5.0 0.00 0.00 0.00 13
20171212222942 82 189 2.0 5.0 0.00 0.00 0.00 13
20171212222640 82 303 0.0 7.0 0.00 0.00 0.00 13
20171212222336 82 226 0.0 7.0 0.00 0.00 0.00 13
20171212222033 82 15 0.0 7.0 0.00 0.00 0.00 12
20171212221731 82 281 5.0 7.0 0.00 0.00 0.00 13
20171212221126 82 330 1.0 7.0 0.00 0.00 0.00 13
20171212220520 82 262 2.0 8.0 0.00 0.00 0.00 13
20171212220449 81 310 4.0 8.0 0.00 0.00 0.00 13
20171212220218 81 310 4.0 8.0 0.00 0.00 0.00 13
20171212215907 81 25 2.0 7.0 0.00 0.00 0.00 13
20171212215614 81 25 2.0 7.0 0.00 0.00 0.00 13
20171212215010 81 272 0.0 7.0 0.00 0.00 0.00 13
20171212214424 80 265 0.0 8.0 0.00 0.00 0.00 13
20171212214405 80 267 1.0 11.0 0.00 0.00 0.00 13
20171212214103 80 265 0.0 8.0 0.00 0.00 0.00 13
20171212213801 81 241 0.0 8.0 0.00 0.00 0.00 13
20171212213459 80 239 0.0 11.0 0.00 0.00 0.00 13
20171212213455 80 286 0.0 8.0 0.00 0.00 0.00 12
20171212213156 80 286 0.0 8.0 0.00 0.00 0.00 12
20171212213006 80 232 0.0 9.0 0.00 0.00 0.00 13
20171212212550 80 232 0.0 9.0 0.00 0.00 0.00 13
20171212212517 80 164 0.0 9.0 0.00 0.00 0.00 13
20171212212247 80 164 0.0 9.0 0.00 0.00 0.00 13
20171212212216 80 271 0.0 10.0 0.00 0.00 0.00 12
20171212212141 80 264 0.0 5.0 0.00 0.00 0.00 13
20171212212103 80 216 7.0 10.0 0.00 0.00 0.00 12
20171212212030 81 288 0.0 9.0 0.00 0.00 0.00 13
20171212211952 80 216 7.0 10.0 0.00 0.00 0.00 12
20171212211945 80 142 0.0 9.0 0.00 0.00 0.00 13
20171212211910 80 264 0.0 5.0 0.00 0.00 0.00 13
20171212211840 80 216 7.0 10.0 0.00 0.00 0.00 12
20171212211739 80 216 7.0 10.0 0.00 0.00 0.00 12
20171212211706 80 271 0.0 10.0 0.00 0.00 0.00 12
20171212211630 80 216 7.0 10.0 0.00 0.00 0.00 12
20171212211550 81 288 0.0 9.0 0.00 0.00 0.00 13
20171212211508 80 271 0.0 10.0 0.00 0.00 0.00 12
20171212211421 80 216 7.0 10.0 0.00 0.00 0.00 12
20171212211331 80 264 0.0 5.0 0.00 0.00 0.00 13
20171212211237 80 271 0.0 10.0 0.00 0.00 0.00 12
20171212211139 80 225 1.0 7.0 0.00 0.00 0.00 13
20171212211108 80 271 0.0 10.0 0.00 0.00 0.00 12
20171212211039 80 216 7.0 10.0 0.00 0.00 0.00 12
20171212211037 81 288 0.0 9.0 0.00 0.00 0.00 13
20171212211006 80 271 0.0 10.0 0.00 0.00 0.00 12
20171212210932 80 264 0.0 5.0 0.00 0.00 0.00 13
20171212210856 81 288 0.0 9.0 0.00 0.00 0.00 13
20171212210821 81 288 0.0 9.0 0.00 0.00 0.00 13
20171212210743 81 288 0.0 9.0 0.00 0.00 0.00 13
20171212210737 80 271 0.0 10.0 0.00 0.00 0.00 12
20171212210704 81 288 0.0 9.0 0.00 0.00 0.00 13
20171212210623 81 288 0.0 9.0 0.00 0.00 0.00 13
20171212210541 81 288 0.0 9.0 0.00 0.00 0.00 13
20171212210458 80 264 0.0 5.0 0.00 0.00 0.00 13
20171212210414 80 264 0.0 5.0 0.00 0.00 0.00 13
20171212210330 81 288 0.0 9.0 0.00 0.00 0.00 13
20171212210245 81 244 6.0 5.0 0.00 0.00 0.00 13
20171212210158 81 288 0.0 9.0 0.00 0.00 0.00 13
20171212210132 81 313 0.0 9.0 0.00 0.00 0.00 13
20171212210107 80 225 1.0 7.0 0.00 0.00 0.00 13
20171212210017 80 264 0.0 5.0 0.00 0.00 0.00 13
20171212205925 80 264 0.0 5.0 0.00 0.00 0.00 13
20171212205830 81 244 6.0 5.0 0.00 0.00 0.00 13
20171212205828 81 288 0.0 9.0 0.00 0.00 0.00 13
20171212205733 80 225 1.0 7.0 0.00 0.00 0.00 13
20171212205634 80 264 0.0 5.0 0.00 0.00 0.00 13
20171212205533 80 225 1.0 7.0 0.00 0.00 0.00 13
20171212205526 81 244 6.0 5.0 0.00 0.00 0.00 13
20171212205429 80 225 1.0 7.0 0.00 0.00 0.00 13
20171212205325 80 225 1.0 7.0 0.00 0.00 0.00 13
20171212205225 80 264 0.0 5.0 0.00 0.00 0.00 13
20171212205217 80 225 1.0 7.0 0.00 0.00 0.00 13
20171212205107 80 225 1.0 7.0 0.00 0.00 0.00 13
20171212204956 80 225 1.0 7.0 0.00 0.00 0.00 13
20171212204924 80 241 0.0 9.0 0.00 0.00 0.00 13
20171212204620 80 225 1.0 7.0 0.00 0.00 0.00 13
20171212204016 81 255 3.0 7.0 0.00 0.00 0.00 13
20171212203410 81 227 1.0 7.0 0.00 0.00 0.00 13
20171212203107 80 226 6.0 6.0 0.00 0.00 0.00 13
20171212202806 80 132 0.0 6.0 0.00 0.00 0.00 13
20171212201858 79 265 0.0 8.0 0.00 0.00 0.00 14
20171212201556 79 209 5.0 6.0 0.00 0.00 0.00 14
20171212200953 78 171 3.0 4.0 0.00 0.00 0.00 14
20171212200349 79 147 2.0 5.0 0.00 0.00 0.00 14
20171212195441 78 202 1.0 5.0 0.00 0.00 0.00 14
20171212194835 79 260 0.0 6.0 0.00 0.00 0.00 14
20171212193625 79 236 0.0 5.0 0.00 0.00 0.00 14
20171212193021 78 167 0.0 6.0 0.00 0.00 0.00 14
20171212192718 78 167 1.0 6.0 0.00 0.00 0.00 14
20171212192415 78 196 0.0 4.0 0.00 0.00 0.00 14
20171212191811 77 199 0.0 4.0 0.00 0.00 0.00 15
20171212191205 78 209 2.0 5.0 0.00 0.00 0.00 14
20171212190602 78 268 0.0 5.0 0.00 0.00 0.00 14
20171212190300 78 226 3.0 5.0 0.00 0.00 0.00 15
20171212185958 77 147 1.0 4.0 0.00 0.00 0.00 14
20171212185352 77 203 0.0 1.0 0.00 0.00 0.00 15
20171212185051 77 203 0.0 0.0 0.00 0.00 0.00 16
20171212184748 76 203 0.0 0.0 0.00 0.00 0.00 16
20171212184445 77 203 0.0 0.0 0.00 0.00 0.00 16
20171212183840 77 203 0.0 4.0 0.00 0.00 0.00 16
20171212183538 78 234 3.0 0.0 0.00 0.00 0.00 16
20171212183235 77 330 0.0 0.0 0.00 0.00 0.00 17
20171212182933 76 330 0.0 3.0 0.00 0.00 0.00 16
20171212182631 77 272 3.0 0.0 0.00 0.00 0.00 17
20171212182328 77 262 0.0 0.0 0.00 0.00 0.00 17
20171212182025 77 262 0.0 0.0 0.00 0.00 0.00 18
20171212181722 77 262 0.0 0.0 0.00 0.00 0.00 17
20171212181421 77 262 0.0 3.0 0.00 0.00 0.00 17
20171212181118 77 262 0.0 0.0 0.00 0.00 0.00 17
20171212180514 76 244 0.0 0.0 0.00 0.00 0.00 17
20171212180211 75 244 0.0 0.0 0.00 0.00 0.00 18
20171212175909 75 244 0.0 0.0 0.00 0.00 0.00 18
20171212175608 75 244 0.0 0.0 0.00 0.00 0.00 18
20171212175002 74 244 0.0 2.0 0.00 0.00 0.00 19
20171212174358 72 67 0.0 0.0 0.00 0.00 0.00 18
20171212174055 72 67 0.0 0.0 0.00 0.00 0.00 19
20171212173752 70 67 0.0 0.0 0.00 0.00 0.00 19
20171212173449 70 67 0.0 0.0 0.00 0.00 0.00 19
20171212173148 70 67 0.0 0.0 0.00 0.00 0.00 20
20171212172846 69 67 0.0 0.0 0.00 0.00 0.00 20
20171212172542 69 67 0.0 0.0 0.00 0.00 0.00 19
20171212172240 69 67 0.0 0.0 0.00 0.00 0.00 20
20171212171937 68 67 0.0 0.0 0.00 0.00 0.00 20
20171212171634 68 67 0.0 0.0 0.00 0.00 0.00 20
20171212171331 68 67 0.0 0.0 0.00 0.00 0.00 21
20171212171028 67 67 0.0 0.0 0.00 0.00 0.00 21
20171212170725 66 67 0.0 0.0 0.00 0.00 0.00 21
20171212170119 66 67 0.0 0.0 0.00 0.00 0.00 23
20171212164908 64 67 0.0 0.0 0.00 0.00 0.00 23
20171212164605 64 67 0.0 0.0 0.00 0.00 0.00 22
20171212164302 63 67 0.0 0.0 0.00 0.00 0.00 24
20171212163656 62 67 0.0 0.0 0.00 0.00 0.00 24
20171212163051 61 67 0.0 0.0 0.00 0.00 0.00 24
20171212162445 59 67 0.0 0.0 0.00 0.00 0.00 24
20171212162143 59 67 0.0 0.0 0.00 0.00 0.00 25
20171212161839 59 67 0.0 0.0 0.00 0.00 0.00 25
20171212161537 59 67 0.0 0.0 0.00 0.00 0.00 26
20171212161234 57 67 0.0 0.0 0.00 0.00 0.00 26
20171212160932 58 67 0.0 0.0 0.00 0.00 0.00 25
20171212160628 57 67 0.0 0.0 0.00 0.00 0.00 25
20171212155720 55 67 0.0 0.0 0.00 0.00 0.00 26
20171212155114 53 67 0.0 0.0 0.00 0.00 0.00 25
20171212154508 54 67 0.0 0.0 0.00 0.00 0.00 25
20171212154205 54 67 0.0 3.0 0.00 0.00 0.00 24
20171212153559 53 67 1.0 0.0 0.00 0.00 0.00 23
20171212153256 53 88 2.0 0.0 0.00 0.00 0.00 24
20171212151440 54 74 0.0 0.0 0.00 0.00 0.00 23
20171212150834 53 74 0.0 0.0 0.00 0.00 0.00 23
20171212150531 53 74 0.0 0.0 0.00 0.00 0.00 23
20171212150228 52 74 0.0 0.0 0.00 0.00 0.00 24
20171212145925 53 74 0.0 0.0 0.00 0.00 0.00 24
20171212145622 53 74 0.0 0.0 0.00 0.00 0.00 24
20171212144411 52 74 0.0 0.0 0.00 0.00 0.00 24
20171212144108 53 74 0.0 0.0 0.00 0.00 0.00 24
20171212143806 53 74 0.0 0.0 0.00 0.00 0.00 24
20171212142910 54 74 0.0 0.0 0.00 0.00 0.00 24
20171212142509 53 74 0.0 0.0 0.00 0.00 0.00 23
20171212142143 53 74 0.0 3.0 0.00 0.00 0.00 23
20171212142107 53 74 0.0 3.0 0.00 0.00 0.00 23
20171212141706 54 74 0.0 0.0 0.00 0.00 0.00 24
20171212141303 53 68 0.0 0.0 0.00 0.00 0.00 24
20171212140902 54 68 0.0 0.0 0.00 0.00 0.00 23
20171212140500 54 68 0.0 0.0 0.00 0.00 0.00 23
20171212140058 53 68 0.0 0.0 0.00 0.00 0.00 23
20171212134451 54 68 0.0 0.0 0.00 0.00 0.00 23
20171212133648 54 68 0.0 0.0 0.00 0.00 0.00 23
20171212132040 53 68 0.0 0.0 0.00 0.00 0.00 24
20171212131638 54 68 0.0 0.0 0.00 0.00 0.00 23
20171212131238 53 68 0.0 0.0 0.00 0.00 0.00 23
20171212130835 52 68 0.0 0.0 0.00 0.00 0.00 24
20171212130433 53 68 0.0 0.0 0.00 0.00 0.00 24
20171212130031 53 68 0.0 0.0 0.00 0.00 0.00 24
20171212125630 54 68 0.0 0.0 0.00 0.00 0.00 24
20171212125228 54 68 0.0 0.0 0.00 0.00 0.00 24
20171212124826 54 68 0.0 0.0 0.00 0.00 0.00 24
20171212124424 54 68 0.0 0.0 0.00 0.00 0.00 24
20171212123620 53 68 0.0 0.0 0.00 0.00 0.00 24
20171212123219 53 68 0.0 0.0 0.00 0.00 0.00 24
20171212122817 53 68 0.0 0.0 0.00 0.00 0.00 25
20171212122416 53 68 0.0 0.0 0.00 0.00 0.00 25
20171212122013 53 68 0.0 0.0 0.00 0.00 0.00 24
20171212121612 53 68 0.0 0.0 0.00 0.00 0.00 24
20171212121209 53 68 0.0 0.0 0.00 0.00 0.00 24
20171212120808 53 68 0.0 0.0 0.00 0.00 0.00 24
20171212120406 53 68 0.0 0.0 0.00 0.00 0.00 24
20171212120005 54 68 0.0 0.0 0.00 0.00 0.00 23
20171212115603 54 68 0.0 0.0 0.00 0.00 0.00 24
20171212115201 54 68 0.0 0.0 0.00 0.00 0.00 23
20171212114759 54 68 0.0 0.0 0.00 0.00 0.00 23
20171212114358 53 68 0.0 0.0 0.00 0.00 0.00 23
20171212113955 54 68 0.0 0.0 0.00 0.00 0.00 23
20171212113152 54 68 0.0 0.0 0.00 0.00 0.00 23
20171212111947 54 68 0.0 0.0 0.00 0.00 0.00 22
20171212111544 54 68 0.0 0.0 0.00 0.00 0.00 23
20171212110742 55 68 0.0 0.0 0.00 0.00 0.00 22
20171212110340 55 68 0.0 0.0 0.00 0.00 0.00 22
20171212105702 55 68 0.0 0.0 0.00 0.00 0.00 22
20171212105538 55 68 0.0 0.0 0.00 0.00 0.00 22
20171212105134 55 68 0.0 0.0 0.00 0.00 0.00 22
20171212104733 55 68 0.0 0.0 0.00 0.00 0.00 22
20171212103929 55 68 0.0 0.0 0.00 0.00 0.00 22
20171212103527 56 68 0.0 0.0 0.00 0.00 0.00 22
20171212103126 55 68 0.0 0.0 0.00 0.00 0.00 22
20171212102723 56 68 0.0 0.0 0.00 0.00 0.00 21
20171212101518 57 68 0.0 0.0 0.00 0.00 0.00 21
20171212101152 57 68 0.0 0.0 0.00 0.00 0.00 21
20171212101117 57 68 0.0 0.0 0.00 0.00 0.00 21
20171212100313 57 68 0.0 0.0 0.00 0.00 0.00 21
20171212095912 56 68 0.0 0.0 0.00 0.00 0.00 21
20171212095509 56 68 0.0 0.0 0.00 0.00 0.00 22
20171212094743 55 68 0.0 0.0 0.00 0.00 0.00 22
20171212094705 55 68 0.0 0.0 0.00 0.00 0.00 22
20171212093546 55 68 0.0 0.0 0.00 0.00 0.00 22
20171212093501 55 68 0.0 0.0 0.00 0.00 0.00 22
20171212093058 55 68 0.0 0.0 0.00 0.00 0.00 22
20171212092657 56 68 0.0 0.0 0.00 0.00 0.00 22
20171212090817 56 68 0.0 0.0 0.00 0.00 0.00 22
20171212090648 56 68 0.0 0.0 0.00 0.00 0.00 22
20171212085844 56 68 0.0 0.0 0.00 0.00 0.00 22
20171212085443 57 68 0.0 0.0 0.00 0.00 0.00 22
20171212085041 56 68 0.0 0.0 0.00 0.00 0.00 22
20171212084336 55 68 0.0 0.0 0.00 0.00 0.00 22
20171212084237 55 68 0.0 0.0 0.00 0.00 0.00 22
20171212083915 56 68 0.0 0.0 0.00 0.00 0.00 22
20171212083836 56 68 0.0 0.0 0.00 0.00 0.00 22
20171212083434 55 68 0.0 0.0 0.00 0.00 0.00 22
20171212083032 55 68 0.0 0.0 0.00 0.00 0.00 22
20171212082752 56 68 0.0 0.0 0.00 0.00 0.00 22
20171212082629 56 68 0.0 0.0 0.00 0.00 0.00 22
20171212082228 56 68 0.0 0.0 0.00 0.00 0.00 22
20171212081826 57 68 0.0 3.0 0.00 0.00 0.00 21
20171212081425 56 68 0.0 5.0 0.00 0.00 0.00 22
20171212081023 57 101 4.0 0.0 0.00 0.00 0.00 21
20171212080622 58 92 0.0 0.0 0.00 0.00 0.00 21
20171212080219 58 92 0.0 0.0 0.00 0.00 0.00 21
20171212075014 58 92 0.0 0.0 0.00 0.00 0.00 21
20171212074211 58 92 0.0 0.0 0.00 0.00 0.00 20
20171212073809 57 92 0.0 0.0 0.00 0.00 0.00 22
20171212073529 57 92 0.0 0.0 0.00 0.00 0.00 21
20171212073407 57 92 0.0 0.0 0.00 0.00 0.00 21
20171212072604 58 92 0.0 0.0 0.00 0.00 0.00 21
20171212072201 58 92 0.0 3.0 0.00 0.00 0.00 20
20171212071358 58 127 1.0 4.0 0.00 0.00 0.00 21
20171212070153 58 66 0.0 0.0 0.00 0.00 0.00 21
20171212065751 58 66 0.0 0.0 0.00 0.00 0.00 21
20171212064143 64 39 0.0 7.0 0.00 0.00 0.00 18
20171212063340 63 28 5.0 6.0 0.00 0.00 0.00 18
20171212062939 61 33 3.0 0.0 0.00 0.00 0.00 18
20171212062135 57 352 0.0 0.0 0.00 0.00 0.00 22
20171212061732 57 352 0.0 0.0 0.00 0.00 0.00 22
20171212061418 57 352 0.0 0.0 0.00 0.00 0.00 22
20171212061331 57 352 0.0 0.0 0.00 0.00 0.00 22
20171212060929 57 352 0.0 0.0 0.00 0.00 0.00 23
20171212060528 57 352 0.0 0.0 0.00 0.00 0.00 23
20171212060126 57 352 0.0 0.0 0.00 0.00 0.00 23
20171212055322 58 352 0.0 0.0 0.00 0.00 0.00 22
20171212054920 59 352 0.0 0.0 0.00 0.00 0.00 22
20171212054518 60 352 0.0 0.0 0.00 0.00 0.00 21
20171212054117 59 352 0.0 0.0 0.00 0.00 0.00 21
20171212052911 57 352 0.0 0.0 0.00 0.00 0.00 23
20171212052510 57 352 0.0 0.0 0.00 0.00 0.00 24
20171212052108 57 352 0.0 0.0 0.00 0.00 0.00 24
20171212051707 57 352 0.0 0.0 0.00 0.00 0.00 24
20171212050501 58 352 0.0 0.0 0.00 0.00 0.00 23
20171212045657 58 352 0.0 0.0 0.00 0.00 0.00 22
20171212044452 59 352 0.0 0.0 0.00 0.00 0.00 22
20171212044050 58 352 0.0 0.0 0.00 0.00 0.00 23
20171212043649 58 352 0.0 0.0 0.00 0.00 0.00 23
20171212043246 58 352 0.0 0.0 0.00 0.00 0.00 23
20171212042042 59 352 0.0 0.0 0.00 0.00 0.00 22
20171212041639 59 352 0.0 0.0 0.00 0.00 0.00 23
20171212041238 59 352 0.0 0.0 0.00 0.00 0.00 23
20171212040434 60 352 0.0 0.0 0.00 0.00 0.00 21
20171212040032 59 73 0.0 0.0 0.00 0.00 0.00 22
20171212035631 59 73 0.0 0.0 0.00 0.00 0.00 23
20171212035228 59 73 0.0 0.0 0.00 0.00 0.00 23
20171212034425 60 73 0.0 0.0 0.00 0.00 0.00 22